Location: *
(45.5667°S, 177.5167°W)
Time: 23:13:03
(UTC+00:00)

Aureole 1 Rocket - Pass Details

Date: 29 May 2022
Orbit: 378 x 1351 km, 73.9° (Epoch: 24 June)

Event Time Altitude Azimuth Distance (km) Brightness Sun altitude
Rises 05:38:03 0° 203° (SSW) 4,178 7.4 -13.7°
Reaches altitude 10° 05:41:04 10° 203° (SSW) 3,091 6.7 -14.2°
Maximum altitude 05:48:22 85° 288° (WNW) 981 4.0 -15.4°
Drops below altitude 10° 05:53:55 10° 17° (NNE) 2,373 6.0 -16.3°
Sets 05:55:59 0° 17° (NNE) 3,160 6.7 -16.7°
